Location: Unspecified
(48.8656°N, 0.0000°E)
Time: 11:39:03
(UTC+00:00)

Transit 2A Rocket - Pass Details

Date: 22 June 2019
Orbit: 588 x 915 km, 66.7° (Epoch: 22 July)

Event Time Altitude Azimuth Distance (km) Brightness Sun altitude
Rises 15:43:07 0° 319° (NW) 3,440 8.7 40.0°
Reaches altitude 10° 15:46:53 10° 342° (NNW) 2,438 7.8 39.4°
Maximum altitude 15:49:59 15° 16° (NNE) 2,057 7.2 38.9°
Drops below altitude 10° 15:52:56 10° 50° (NE) 2,313 7.2 38.4°
Sets 15:56:21 0° 74° (ENE) 3,160 7.7 37.9°
